STARLINK-6304, 56778

Orbit data source: Space-Track

STARLINK-6304, 56778 is a payload satellite owned by SpaceX/Seattle (US) in LEO that was launched on Wed, 31 May 2023 UTC via an FALCON 9 launch vehicle from the Air Force Western Test Range (AFWTR). Payload-class satellites include a variety of spacecraft equipped with specific instruments for various scientific and technological missions. These include communications satellites like Starlink; space stations such as the ISS; scientific satellites like the Hubble; Earth observation satellites from companies like Planet Labs, Umbra, and HawkEye 360; GPS; miniature CubeSats for education and research; and military/defense satellites.

Loading next visibility...
Identifier
56778, 2023-078M
Orbit
LEO
Country
Flag of USUS
Related business
Manufacturer
SpaceX/Seattle
Mission
Operational Commercial Communications
Bus & Motor
STARLINK, Unknown motor
Mass
305 kg wet, ~290 kg dry
Launch date (UTC)
2023-05-31 (3 years ago)
Launch vehicle
FALCON 9
Launch site
Air Force Western Test Range (AFWTR)
Object type
Payload
Rocket body
Debris
Shape & HBR
Box + 1 Pan, 10.1 m
Radar Cross Section
11.087 m², Large (>1 m²)

Expand to show TLE details & history
Last TLE update: 3 days ago

TLE from 3 days ago
0 STARLINK-6304
1 56778U 23078M   26170.92591868  .00000161  00000-0  21317-4 0  9993
2 56778  70.0001  66.8410 0002900 270.5323  89.5504 14.98331958168480
Epoch: 2026-06-19T22:13Z
TLE epoch observation values (Epoch: 2026-06-19T22:13:19.373Z)
Latitude
-0.00003°
Longitude
-174.63763°
Altitude
574.458 km
Speed
7.574 km/s
True Right ascension
04h 27m 21s
True Declination
0° 00' 00"
Sunlit
Object was in daylight at epoch
Visualization orbit readout
Latitude
Unknown
Longitude
Unknown
Altitude
Unknown
Speed
Unknown
Apparent Right ascension
Unknown
Apparent Declination
Unknown
Sunlit
N/A
Visualization observer readout
Local Sidereal Time
21:32:25
Azimuth
Unknown
Elevation
Unknown
Doppler factor
Unknown
Orbital elements
Apogee altitude
572.013 km
Perigee altitude
567.983 km
Semi-major axis
6,948.135 km
Eccentricity
0.00029
Inclination
70.0001°
RAAN
66.841°
Arg. of periapsis
270.5323°
True anomaly
89.58363°
Mean anomaly
89.5504°
Eccentric anomaly
89.56702°
Mean motion
3.74749 °/min
Orbital period
96.06 mins
BSTAR
0.000021317
Loading maneuver chart data...
Computing Atmospheric mass density...
Loading historical data...
Loading historical data...
Loading historical data...
Loading historical data...
Loading historical data...
Loading historical data...
Loading historical data...

Documentation

Showing up to 5 results
|